Location: *
(33.6842°N, 117.7925°W)
Time: 23:42:19
(UTC+00:00)

SeaSat 1 - Pass Details

Date: 21 October 2019
Orbit: 745 x 747 km, 108.0° (Epoch: 16 November)

Event Time Altitude Azimuth Distance (km) Brightness Sun altitude
Rises 13:23:31 0° 32° (NNE) 3,193 6.1 -8.5°
Reaches altitude 10° 13:25:53 10° 38° (NE) 2,266 5.4 -8.0°
Maximum altitude 13:30:35 44° 111° (ESE) 1,020 3.8 -7.0°
Drops below altitude 10° 13:35:15 10° 183° (S) 2,253 5.0 -6.0°
Sets 13:37:36 0° 190° (S) 3,172 5.7 -5.6°
